Home > Weather > Philadelphia > Past weeks

Flag for USA Past Weather in Philadelphia, Pennsylvania, USA — Yesterday and Last 2 Weeks

Now
76 °F

Partly cloudy.


Feels Like: 76 °F
Forecast: 75 / 92 °F
Wind: 9 mph from Southwest

Location: Philadelphia International Airport

Current Time: Aug 26, 2016 at 6:30:12 AM

Latest Report: Aug 26, 2016 at 5:54 AM


Visibility: 10 mi

Pressure: 30.01 "Hg

Humidity: 88%

Dew Point: 72 °F

Location of PhiladelphiaLocation

Past Weather in Philadelphia — Graph

°F

Philadelphia Temperature Yesterday

Maximum temperature yesterday: 87 °F (at 1:54 PM)
Minimum temperature yesterday: 69 °F (at 3:54 AM)
Average temperature yesterday: 78 °F

High & Low Weather Summary for the Past Weeks

 TemperatureHumidityPressure
High97 °F (Aug 13, 3:54 PM)94% (Aug 18, 4:54 AM)30.34 "Hg (Aug 18, 4:54 AM)
Low62 °F (Aug 23, 5:54 AM)35% (Aug 20, 3:54 PM)29.76 "Hg (Aug 21, 3:54 PM)
Average82 °F66%30.03 "Hg
* Reported Aug 11 4:54 AM — Aug 26 4:54 AM, Philadelphia, Weather by CustomWeather, © 2016

Note: Actual official high and low records may vary slightly from our data, if they occured in-between our weather recording intervals... More about our weather records

Advertising

Philadelphia Weather History for the Previous 24 Hours

Scroll right to see more
 ConditionsComfort  
Time TempWeatherWind HumidityBarometerVisibility
4:54 AM
Fri, Aug 26
75 °FPartly cloudy.9 mph85%30.00 "Hg10 mi
3:54 AM76 °FPassing clouds.7 mph82%30.00 "Hg10 mi
2:54 AM76 °FPassing clouds.8 mph80%30.01 "Hg10 mi
1:54 AM77 °FClear.8 mph79%30.00 "Hg10 mi
12:54 AM78 °FClear.9 mph74%30.01 "Hg10 mi
11:54 PM
Thu, Aug 25
79 °FClear.10 mph74%30.02 "Hg10 mi
10:54 PM79 °FClear.8 mph74%30.02 "Hg10 mi
9:54 PM80 °FPassing clouds.8 mph74%30.02 "Hg10 mi
8:54 PM81 °FPassing clouds.7 mph72%30.03 "Hg10 mi
7:54 PM83 °FBroken clouds.12 mph68%30.02 "Hg10 mi
6:54 PM84 °FBroken clouds.13 mph65%30.01 "Hg10 mi
5:54 PM84 °FBroken clouds.12 mph65%30.01 "Hg10 mi
4:54 PM85 °FCloudy.10 mph65%30.02 "Hg10 mi
3:54 PM85 °FMostly cloudy.13 mph61%30.03 "Hg10 mi
2:54 PM86 °FMostly cloudy.17 mph59%30.03 "Hg10 mi
1:54 PM87 °FBroken clouds.13 mph55%30.05 "Hg10 mi
12:54 PM85 °FBroken clouds.15 mph57%30.06 "Hg10 mi
11:54 AM84 °FBroken clouds.13 mph57%30.08 "Hg10 mi
10:54 AM82 °FBroken clouds.15 mph58%30.10 "Hg10 mi
9:54 AM78 °FBroken clouds.13 mph66%30.11 "Hg10 mi
8:54 AM75 °FBroken clouds.10 mph71%30.12 "Hg10 mi
7:54 AM72 °FBroken clouds.8 mph68%30.13 "Hg10 mi
6:54 AM69 °FPassing clouds.6 mph76%30.13 "Hg10 mi
Weather by CustomWeather, © 2016

See weather overviewHow to use our weather pages